Ouarzazate, Morocco

12:23 PM WET on June 24, 2017 (GMT +0000)
Ouarzazate

Weather History for GMMZ - September, 2013

Change the Weather History Date:

Tuesday, September 17, 2013

  Actual Average Record
Temperature  
Mean Temperature 71 °F -  
Max Temperature 83 °F 84 °F - ()
Min Temperature 59 °F 58 °F - ()
Cooling Degree Days 6    
Growing Degree Days 21 (Base 50)    
Moisture  
Dew Point 45 °F    
Average Humidity 40    
Maximum Humidity 72    
Minimum Humidity 14    
Precipitation  
Precipitation 0.00 in 0.02 in - ()
Sea Level Pressure  
Sea Level Pressure 30.06 in    
Wind  
Wind Speed 4 mph ()    
Max Wind Speed 15 mph    
Max Gust Speed -    
Visibility 7.7 miles    
Events      
T = Trace of Precipitation, MM = Missing Value Source: Averaged Metar Reports

Daily Weather History Graph

Daily Weather History Graph

Search for Another Location

Airport or City:

Trip Planner

Search our weather history database for the weather conditions in past years. The results will help you decide how hot, cold, wet, or windy it might be!

Date:

Astronomy

Sep. 17, 2013 Rise Set
Actual Time 7:13 AM WEST 7:30 PM WEST
Civil Twilight 6:48 AM WEST 7:54 PM WEST
Nautical Twilight 6:20 AM WEST 8:22 PM WEST
Astronomical Twilight 5:51 AM WEST 8:51 PM WEST
Moon 6:04 PM WEST (9/17) 4:58 AM WEST (9/17)
Length of Visible Light 13h 05m
Length of Day
12h 17m
Waxing Gibbous, 95% of the Moon is Illuminated
Sep 17
Waxing Gibbous
Sep 19
Full
Sep 27
Last Quarter
Oct 5
New
Oct 12
First Quarter

Hourly Weather History & Observations

Time (WEST) Temp. Dew Point Humidity Pressure Visibility Wind Dir Wind Speed Gust Speed Precip Events Conditions
12:00 AM 71.6 °F 41.0 °F 33% 3.51 in 6.2 mi Variable 2.3 mph - N/A   Partly Cloudy
1:00 AM 67 °F 49 °F 42%  in 12 mi NNW 1.2 mph - -   Scattered Clouds
1:00 AM 66.2 °F 50.0 °F 56% 30.09 in 6.2 mi Variable 1.2 mph - N/A   Partly Cloudy
2:00 AM 66.2 °F 51.8 °F 60% 30.09 in 6.2 mi Variable 1.2 mph - N/A   Partly Cloudy
3:00 AM 66.2 °F 50.0 °F 56% 30.06 in 6.2 mi Variable 2.3 mph - N/A   Partly Cloudy
4:00 AM 65 °F 49 °F 45%  in 12 mi West 1.2 mph - -   Scattered Clouds
4:00 AM 64.4 °F 48.2 °F 56% 30.06 in 6.2 mi Variable 1.2 mph - N/A   Partly Cloudy
5:00 AM 60.8 °F 50.0 °F 68% 30.06 in 6.2 mi Variable 1.2 mph - N/A   Partly Cloudy
6:00 AM 60.8 °F 50.0 °F 68% 30.06 in 6.2 mi Calm Calm - N/A   Partly Cloudy
7:00 AM 60 °F 51 °F 63%  in 12 mi West 2.3 mph - -   Scattered Clouds
7:00 AM 59.0 °F 50.0 °F 72% 30.06 in 6.2 mi Variable 2.3 mph - N/A   Partly Cloudy
8:00 AM 59.0 °F 50.0 °F 72% 30.09 in - Variable 1.2 mph - N/A   Clear
9:00 AM 62.6 °F 50.0 °F 63% 30.09 in - Variable 2.3 mph - N/A   Clear
10:00 AM 68.0 °F 46.4 °F 46% 30.09 in 6.2 mi Variable 2.3 mph - N/A   Partly Cloudy
11:00 AM 69.8 °F 46.4 °F 43% 30.12 in 6.2 mi Calm Calm - N/A   Partly Cloudy
12:00 PM 75.2 °F 44.6 °F 34% 30.12 in 6.2 mi Variable 1.2 mph - N/A   Partly Cloudy
1:00 PM 76 °F 43 °F 20%  in 12 mi ENE 2.3 mph - -   Scattered Clouds
1:00 PM 77.0 °F 42.8 °F 29% 30.12 in 6.2 mi Variable 2.3 mph - N/A   Partly Cloudy
2:00 PM 78.8 °F 41.0 °F 26% 30.06 in 6.2 mi Variable 2.3 mph - N/A   Scattered Clouds
3:00 PM 80.6 °F 37.4 °F 21% 30.04 in 6.2 mi ESE 11.5 mph - N/A   Scattered Clouds
4:00 PM 81 °F 40 °F 14%  in 12 mi South 11.5 mph - -   Partly Cloudy
4:00 PM 82.4 °F 39.2 °F 21% 30.04 in 6.2 mi South 11.5 mph - N/A   Scattered Clouds
5:00 PM 82.4 °F 39.2 °F 21% 30.01 in 6.2 mi SE 13.8 mph - N/A   Scattered Clouds
6:00 PM 80.6 °F 39.2 °F 23% 30.01 in 6.2 mi SE 13.8 mph - N/A   Scattered Clouds
7:00 PM 79 °F 39 °F 15%  in 12 mi SSE 13.8 mph - -   Partly Cloudy
7:00 PM 78.8 °F 39.2 °F 24% 30.01 in 6.2 mi SSE 13.8 mph - N/A   Scattered Clouds
8:00 PM 77.0 °F 39.2 °F 26% 30.04 in 6.2 mi SSE 11.5 mph - N/A   Scattered Clouds
9:00 PM 75.2 °F 41.0 °F 29% 30.04 in 6.2 mi SSE 13.8 mph - N/A   Scattered Clouds
10:00 PM 74 °F 41 °F 20%  in 12 mi SSE 15.0 mph - -   Scattered Clouds
10:00 PM 75.2 °F 41.0 °F 29% 30.04 in 6.2 mi SSE 15.0 mph - N/A   Partly Cloudy
11:00 PM 73.4 °F 41.0 °F 31% 30.04 in - SSW 9.2 mph - N/A   Clear